This is the latest recevied weather packets stored in our database for station/object PE1RXF-13. If no packets are shown the sender has not sent any weather packets the latest 10 day(s).
| Time | Temp. | Humidity | Pressure | Rain* | Wind** | Luminosity | Snow |
|---|---|---|---|---|---|---|---|
| 1778039052 | 8.89° C | 99% | 1007.7 hPa | 0 mm | - | 0 W/m² | - |
| 1778037252 | 8.89° C | 99% | 1007.8 hPa | 0 mm | - | 0 W/m² | - |
| 1778035452 | 8.89° C | 99% | 1008 hPa | 0 mm | - | 0 W/m² | - |
| 1778033652 | 8.89° C | 99% | 1008.1 hPa | 0 mm | - | 0 W/m² | - |
| 1778031852 | 8.89° C | 99% | 1008.3 hPa | 0 mm | - | 0 W/m² | - |
| 1778030052 | 8.89° C | 99% | 1008.4 hPa | 0 mm | - | 0 W/m² | - |
| 1778028253 | 9.44° C | 99% | 1008.6 hPa | 0 mm | - | 0 W/m² | - |
| 1778026453 | 9.44° C | 99% | 1008.8 hPa | 0 mm | - | 0 W/m² | - |
| 1778024653 | 9.44° C | 99% | 1009.2 hPa | 0 mm | - | 0 W/m² | - |
| 1778022852 | 9.44° C | 99% | 1009.1 hPa | 0 mm | - | 0 W/m² | - |
| 1778021053 | 9.44° C | 99% | 1009.3 hPa | 0 mm | - | 0 W/m² | - |
| 1778019252 | 8.89° C | 99% | 1009.5 hPa | 0 mm | - | 0 W/m² | - |
| 1778017452 | 9.44° C | 99% | 1009.8 hPa | 0 mm | - | 0 W/m² | - |
| 1778015652 | 9.44° C | 99% | 1009.8 hPa | 0 mm | - | 0 W/m² | - |
| 1778013853 | 9.44° C | 99% | 1010 hPa | 0 mm | - | 0 W/m² | - |
| 1778012053 | 9.44° C | 99% | 1009.9 hPa | 0 mm | - | 0 W/m² | - |
| 1778010253 | 9.44° C | 99% | 1009.9 hPa | 0 mm | - | 0 W/m² | - |
| 1778008453 | 9.44° C | 99% | 1009.8 hPa | 0 mm | - | 0 W/m² | - |
| 1777999453 | 11.67° C | 93% | 1009.8 hPa | 0 mm | - | 38 W/m² | - |
| 1777997653 | 12.22° C | 84% | 1009.8 hPa | 0 mm | - | 47 W/m² | - |
| 1777994054 | 12.78° C | 79% | 1010 hPa | 0 mm | - | 80 W/m² | - |
| 1777988653 | 12.22° C | 89% | 1010.6 hPa | 0 mm | - | 57 W/m² | - |
| 1777986854 | 12.22° C | 93% | 1010.8 hPa | 0 mm | - | 84 W/m² | - |
| 1777985058 | 12.78° C | 91% | 1011 hPa | 0 mm | - | 61 W/m² | - |
| 1777983253 | 11.67° C | 93% | 1011 hPa | 0 mm | - | 48 W/m² | - |
* Rain latest hour (hover to see other rain measurements)
** Current wind speed in m/s (hover to see current wind gust speed)